Topeka, KS

3:16 PM CST on November 17, 2019 (GMT -0600)
Billard Municipal

Weather History for KTOP - August, 2019

Change the Weather History Date:

Monday, August 12, 2019

  Actual Average Record
Temperature  
Mean Temperature 84 °F 78 °F  
Max Temperature 96 °F 89 °F 109 °F (1936)
Min Temperature 72 °F 67 °F 48 °F (2004)
Degree Days  
Heating Degree Days 0 0  
Month to date heating degree days 0 0  
Since 1 June heating degree days 0 8  
Since 1 July heating degree days 0 0  
Cooling Degree Days 19 13  
Month to date cooling degree days 162 165  
Year to date cooling degree days 1041 1007  
Since 1 June cooling degree days 929 881  
Growing Degree Days 34 (Base 50)    
Moisture  
Dew Point 73 °F    
Average Humidity 70    
Maximum Humidity 91    
Minimum Humidity 49    
Precipitation  
Precipitation T in 0.14 in 4.22 in (1946)
Month to date precipitation 2.89 1.61  
Year to date precipitation 31.75 23.94  
Snow  
Snow 0.00 in 0.00 in 0.00 in ()
Month to date snowfall 0.0 0.0  
Year to date snowfall 18.5 11.3  
Since 1 July snowfall 0.0 0.0  
Snow Depth 0.00 in    
Sea Level Pressure  
Sea Level Pressure 29.80 in    
Wind  
Wind Speed 4 mph (NNE)    
Max Wind Speed 22 mph    
Max Gust Speed 30 mph    
Visibility 10 miles    
Events Rain    
T = Trace of Precipitation, MM = Missing Value Source: NWS Daily Summary

Daily Weather History Graph

Daily Weather History Graph

Search for Another Location

Airport or City:

Astronomy

Aug. 12, 2019 Rise Set
Actual Time 6:32 AM CDT 8:21 PM CDT
Civil Twilight 6:04 AM CDT 8:50 PM CDT
Nautical Twilight 5:29 AM CDT 9:25 PM CDT
Astronomical Twilight 4:51 AM CDT 10:02 PM CDT
Moon 6:51 PM CDT (8/12) 3:43 AM CDT (8/12)
Length of Visible Light 14h 46m
Length of Day
13h 48m
Waxing Gibbous, 93% of the Moon is Illuminated
Aug 12
Waxing Gibbous
Aug 15
Full
Aug 23
Last Quarter
Aug 30
New
Sep 5
First Quarter

Hourly Weather History & Observations

Time (CDT) Temp. Heat Index Dew Point Humidity Pressure Visibility Wind Dir Wind Speed Gust Speed Precip Events Conditions
12:53 AM 79.0 °F - 75.0 °F 88% 29.84 in 10.0 mi East 4.6 mph - N/A   Mostly Cloudy
1:53 AM 79.0 °F - 75.0 °F 88% 29.82 in 10.0 mi East 4.6 mph - N/A   Clear
2:53 AM 78.1 °F - 73.9 °F 87% 29.80 in 10.0 mi East 3.5 mph - N/A   Clear
3:53 AM 78.1 °F - 73.9 °F 87% 29.79 in 10.0 mi Calm Calm - N/A   Mostly Cloudy
4:22 AM 75.0 °F - 68.0 °F 79% 29.89 in 10.0 mi NNW 17.3 mph 29.9 mph N/A   Overcast
4:35 AM 73.9 °F - 66.9 °F 79% 29.88 in 10.0 mi NW 9.2 mph 25.3 mph N/A   Mostly Cloudy
4:53 AM 73.0 °F - 66.9 °F 81% 29.83 in 10.0 mi NE 4.6 mph - N/A   Mostly Cloudy
5:53 AM 72.0 °F - 68.0 °F 87% 29.78 in 10.0 mi ESE 6.9 mph - N/A   Clear
6:53 AM 73.0 °F - 68.0 °F 84% 29.78 in 10.0 mi ESE 6.9 mph - N/A   Clear
7:53 AM 73.9 °F - 69.1 °F 85% 29.78 in 10.0 mi ESE 10.4 mph - N/A   Clear
8:53 AM 77.0 °F - 71.1 °F 82% 29.80 in 10.0 mi Calm Calm - N/A   Clear
9:53 AM 81.0 °F 85.2 °F 72.0 °F 74% 29.81 in 10.0 mi NE 4.6 mph - N/A   Clear
10:53 AM 84.9 °F 92.1 °F 73.9 °F 69% 29.80 in 10.0 mi NE 5.8 mph - N/A   Clear
11:53 AM 87.1 °F 95.4 °F 73.9 °F 65% 29.78 in 10.0 mi NNE 3.5 mph - N/A   Clear
12:53 PM 90.0 °F 100.2 °F 75.0 °F 61% 29.78 in 10.0 mi NE 4.6 mph - N/A   Clear
1:53 PM 91.9 °F 103.2 °F 75.0 °F 58% 29.77 in 10.0 mi Variable 4.6 mph - N/A   Clear
2:53 PM 93.0 °F 103.2 °F 73.9 °F 54% 29.75 in 10.0 mi Variable 3.5 mph - N/A   Clear
3:53 PM 95.0 °F 104.5 °F 73.0 °F 49% 29.75 in 10.0 mi NW 5.8 mph - N/A   Clear
4:53 PM 93.0 °F 104.6 °F 75.0 °F 56% 29.75 in 10.0 mi NW 6.9 mph - N/A   Clear
5:53 PM 89.1 °F 100.2 °F 75.9 °F 65% 29.77 in 10.0 mi NNW 4.6 mph - 0.00 in Rain Light Rain
6:53 PM 89.1 °F 97.0 °F 73.0 °F 59% 29.77 in 10.0 mi NW 4.6 mph - 0.00 in   Clear
7:53 PM 87.1 °F 98.8 °F 77.0 °F 72% 29.78 in 10.0 mi Calm Calm - N/A   Clear
8:53 PM 84.0 °F 93.7 °F 77.0 °F 79% 29.80 in 10.0 mi NNW 3.5 mph - N/A   Clear
9:53 PM 82.0 °F 89.4 °F 75.9 °F 82% 29.82 in 10.0 mi NNW 3.5 mph - 0.00 in   Partly Cloudy
11:53 PM 78.1 °F - 73.9 °F 87% 29.84 in 10.0 mi Calm Calm - N/A   Clear